Regional Weather Roundup
Issued by NWS Sterling, VA

Home | Current Version | Previous Version | Text Only | Print | Product List | Glossary Off
Versions: 1 2 3 4 5 6 7 8 9 10 11 12 13 14 15 16 17 18 19 20 21 22 23 24 25 26 27 28 29 30 31 32 33 34 35 36 37 38 39 40 41 42 43 44 45 46 47 48 49 50

000
ASUS41 KLWX 040210
RWRLWX

REGIONAL WEATHER ROUNDUP
NATIONAL WEATHER SERVICE BALTIMORE MD/WASHINGTON DC
1000 PM EDT MON AUG 03 2015

Note: "FAIR" indicates few or no clouds below 12,000 feet
with no significant weather and/or obstructions to visibility.
 TC=TEMPERATURE CELSIUS

 * =Non NWS site. Station does not report precipitation (e.g. rain,
    snow, etc.), thunder, or fog.

DCZ001-MDZ009-015-VAZ040>042-051-053>054-040300-
WASHINGTON METRO

CITY           SKY/WX    TMP DP  RH WIND       PRES   REMARKS
WASHINGTON NAT PTCLDY    85  70  60 S10       29.84R
DULLES         PTCLDY    78  64  61 S7        29.84R
ANDREWS AFB    CLEAR     80  67  63 S10       29.84R
FT BELVOIR     CLEAR     77  70  78 SE3       29.84R
COLLEGE PARK*  CLEAR     84  64  51 CALM      29.84R
LEESBURG*      CLEAR     81  68  65 S10       29.85R
MANASSAS*      CLEAR     73  68  83 S5        29.84R
GAITHERSBURG*  CLEAR     81  61  50 S3        29.89R

$$

MDZ006>007-011-014-040300-
BALTIMORE METRO

CITY           SKY/WX    TMP DP  RH WIND       PRES   REMARKS
BWI AIRPORT    PTCLDY    80  65  59 S3        29.83R
MD SCIENCE CTR   N/A     85  64  49 MISG      29.83R
MARTIN STATE   PTCLDY    82  70  65 S6        29.84R
ANNAPOLIS      PTCLDY    82  68  62 S5        29.83S
FORT MEADE*    CLEAR     72  68  88 CALM      29.86R

$$

MDZ012-015-019>023-040300-
MARYLAND EASTERN SHORE

CITY           SKY/WX    TMP DP  RH WIND       PRES   REMARKS
OCEAN CITY     PTCLDY    81  76  84 SW16G23   29.88R
SALISBURY      CLEAR     76  70  82 S6        29.87R
BAY BRIDGE AP*   N/A     82  70  65 S6        29.84R
CAMBRIDGE*     PTCLDY    79  72  78 S3        29.86R
EASTON*        PTCLDY    83  76  80 SW7       29.88R HX  91

$$

MDZ017>025-040300-
SOUTHERN MARYLAND

CITY           SKY/WX    TMP DP  RH WIND       PRES   REMARKS
PATUXENT RIVER PTCLDY    81  70  69 SW9       29.86R
ST INIGOES     CLEAR     81  72  74 S8        29.86R
LEONARDTOWN*   CLEAR     79  70  73 CALM      29.88R

$$

MDZ003>005-040300-
NORTH CENTRAL MARYLAND

CITY           SKY/WX    TMP DP  RH WIND       PRES   REMARKS
FREDERICK*     MOCLDY    77  66  69 CALM      29.85S
HAGERSTOWN APT PTCLDY    82  62  50 SE5       29.82F
WESTMINSTER*   PTCLDY    81  64  57 S3        29.85S

$$

MDZ501>502-040300-
WESTERN MARYLAND

CITY           SKY/WX    TMP DP  RH WIND       PRES   REMARKS
OAKLAND*       MOCLDY    68 N/A N/A SW6       29.96S
CUMBERLAND*    MOCLDY    81  59  47 SW9       29.87F

$$

VAZ025>031-040300-
SHENANDOAH VALLEY

CITY           SKY/WX    TMP DP  RH WIND       PRES   REMARKS
WINCHESTER*    MOCLDY    81  64  57 SW3       29.84S
FRONT ROYAL*   FAIR      77  64  65 SW3       29.84R
LURAY*         FAIR      79  64  61 SW5       29.87R
NEW MARKET*    FAIR      78  62  58 SW7       29.86R
STAUNTON*      CLEAR     76  62  61 S3        29.92S
WAYNESBORO*    FAIR      73  61  66 SW5       29.92S

$$

WVZ021-048>050-054>055-040300-
EASTERN WEST VIRGINIA PANHANDLE

CITY           SKY/WX    TMP DP  RH WIND       PRES   REMARKS
MARTINSBURG    MOCLDY    76  65  68 CALM      29.83S
PETERSBURG*    PTCLDY    69  63  79 CALM      29.88S

$$

VAZ036>039-050-040300-
CENTRAL FOOTHILLS

CITY           SKY/WX    TMP DP  RH WIND       PRES   REMARKS
CHARLOTTESVILL CLEAR     79  63  57 CALM      29.88R
CULPEPER*      CLEAR     73  64  73 SW5       29.86S
ORANGE*        CLEAR     75  64  69 CALM      29.89R
GORDONSVILLE*  FAIR      72  66  83 CALM      29.87R
WARRENTON*     FAIR      78  66  67 S5        29.84F

$$

VAZ055>057-040300-
NORTH AND CENTRAL PIEDMONT

CITY           SKY/WX    TMP DP  RH WIND       PRES   REMARKS
FREDERICKSBRG* CLEAR     80  68  68 S5        29.85S
STAFFORD*      CLEAR     71  68  90 CALM      29.89S

$$

NCZ024-NYZ072-PAZ021-071-VAZ022-071-040300-
OTHER REGIONAL OBSERVATIONS

CITY           SKY/WX    TMP DP  RH WIND       PRES   REMARKS
NEW YORK CITY  CLEAR     84  57  39 VRB6      29.84R
PHILADELPHIA   PTCLDY    83  66  56 SW8       29.83R
PITTSBURGH     CLOUDY    68  63  84 NE3       29.86R THUNDER
ROANOKE        CLEAR     80  59  48 CALM      29.95R
RICHMOND       PTCLDY    78  71  79 S7        29.88R
RALEIGH        PTCLDY    83  69  62 S10       29.93R

$$

ANZ530>537-040300-
MARINE OBSERVATIONS

STATION/POSITION TIME  TEMP    WIND        PRES
                       AIR SEA DIR/SP/G
                 (UTC) (F)     (DEG/KT/KT) (MB)
THOMAS PT LIGHT  0200   83     200/ 13       N/A
BALT KEY BRIDGE  0100   84     180/  8/ 10 1009.3R
COVE POINT       0100   83     210/  9/ 10 1011.2R
LEWISETTA        0100   83 85  210/  9/ 10 1010.6R
SOLOMONS ISLAND  0100      84                N/A
PINEY POINT      0100          220/ 10/ 11   N/A

$$



USA.gov is the U.S. government's official web portal to all federal, state and local government web resources and services.